Date String (YYYY-MM-DD hh:mm:ss) UTC,Instrument flags,absolute air pressure of the measurement (hPa),sample flow rate (lpm),inlet stack bypass flow (lpm),air temperature of the measurement (°C),ambient temperature measured by the external sensor (°C),aerosol sample conditioner tube jacket temperature (°C),OPC LED temperature (°C),internal box temperature (°C),relative humidity of the measurement (%),span deviation,mass concentration of particles derived from Lorenz-Mie calculation of OPC scattering (μg/m³),mass concentration of particles derived from Lorenz-Mie calculation of OPC scattering (μg/m³),mass concentration of particles derived from Lorenz-Mie calculation of OPC scattering (μg/m³)
DateTimeUTC,F1_M11,P_M11,Q1_M11,Q2_M11,T1_M11,T2_M11,T3_M11,T4_M11,T5_M11,U1_M11,ZSPAN_M11,X0_M11,X2_M11,X1_M11
2023-06-13 07:00:00,SystemResetWarning,0830.0,5.01,000.00,030.1,028.3,000.0,038.7,031.5,24.3,0000.0,0007.76,0003.19,0001.97
2023-06-13 07:01:00,SystemResetWarning,0830.0,4.99,000.00,030.1,028.3,000.0,038.7,031.5,24.4,0000.0,0007.96,0003.30,0002.03
2023-06-13 07:02:00,SystemResetWarning,0829.9,4.99,000.00,030.1,028.3,000.0,038.7,031.5,24.7,0000.0,0008.02,0003.34,0002.07
2023-06-13 07:03:00,SystemResetWarning,0829.9,5.00,000.00,030.1,028.3,000.0,038.7,031.5,24.7,0000.0,0007.90,0003.31,0002.11
2023-06-13 07:04:00,SystemResetWarning,0829.9,5.01,000.00,030.1,028.3,000.0,038.7,031.5,24.7,0000.0,0007.90,0003.31,0002.17
2023-06-13 07:05:00,SystemResetWarning,0829.9,5.00,000.00,030.1,028.3,000.0,038.6,031.5,24.7,0000.0,0007.90,0003.35,0002.24
2023-06-13 07:06:00,SystemResetWarning,0829.9,4.99,000.00,030.1,028.3,000.0,038.6,031.5,24.7,0000.0,0007.87,0003.37,0002.29
2023-06-13 07:07:00,SystemResetWarning,0829.8,4.99,000.00,030.1,028.3,000.0,038.6,031.5,24.7,0000.0,0008.10,0003.41,0002.33
2023-06-13 07:08:00,SystemResetWarning,0829.8,5.00,000.00,030.1,028.3,000.0,038.6,031.5,24.8,0000.0,0008.01,0003.41,0002.37
2023-06-13 07:09:00,SystemResetWarning,0829.8,5.00,000.00,030.1,028.3,000.0,038.6,031.5,24.8,0000.0,0007.79,0003.36,0002.40
2023-06-13 07:10:00,SystemResetWarning,0829.8,5.01,000.00,030.1,028.3,000.0,038.6,031.5,24.8,0000.0,0007.22,0003.28,0002.40
2023-06-13 07:11:00,SystemResetWarning,0829.8,5.01,000.00,030.1,028.3,000.0,038.6,031.5,24.8,0000.0,0006.72,0003.24,0002.42
2023-06-13 07:12:00,SystemResetWarning,0829.8,5.00,000.00,030.1,028.3,000.0,038.6,031.5,24.8,0000.0,0006.46,0003.18,0002.43
2023-06-13 07:13:00,SystemResetWarning,0829.7,5.00,000.00,030.1,028.3,000.0,038.6,031.5,24.8,0000.0,0006.91,0003.16,0002.44
2023-06-13 07:14:00,SystemResetWarning,0829.7,5.00,000.00,030.1,028.3,000.0,038.6,031.5,24.9,0000.0,0006.80,0003.15,0002.45
2023-06-13 07:15:00,SystemResetWarning,0829.7,5.00,000.00,030.1,028.3,000.0,038.6,031.5,24.9,0000.0,0007.32,0003.13,0002.46
2023-06-13 07:16:00,SystemResetWarning,0829.7,5.00,000.00,030.1,028.3,000.0,038.6,031.5,25.0,0000.0,0007.54,0003.11,0002.46
2023-06-13 07:17:00,SystemResetWarning,0829.7,5.00,000.00,030.1,028.3,000.0,038.6,031.5,25.0,0000.0,0008.17,0003.14,0002.48
2023-06-13 07:18:00,SystemResetWarning,0829.7,5.00,000.00,030.1,028.3,000.0,038.6,031.5,25.3,0000.0,0008.07,0003.17,0002.55
2023-06-13 07:19:00,SystemResetWarning,0829.7,4.98,000.00,030.1,028.3,000.0,038.6,031.5,25.5,0000.0,0008.07,0003.21,0002.61
2023-06-13 07:20:00,SystemResetWarning,0829.7,5.01,000.00,030.1,028.3,000.0,038.6,031.5,25.5,0000.0,0008.14,0003.26,0002.65
2023-06-13 07:21:00,SystemResetWarning,0829.7,5.01,000.00,030.1,028.3,000.0,038.6,031.6,25.6,0000.0,0008.22,0003.32,0002.72
2023-06-13 07:22:00,SystemResetWarning,0829.7,5.00,000.00,030.1,028.3,000.0,038.6,031.5,25.6,0000.0,0008.27,0003.37,0002.78
2023-06-13 07:23:00,SystemResetWarning,0829.7,5.00,000.00,030.1,028.3,000.0,038.6,031.5,25.6,0000.0,0007.91,0003.36,0002.83
2023-06-13 07:24:00,SystemResetWarning,0829.7,5.01,000.00,030.1,028.3,000.0,038.6,031.5,25.6,0000.0,0007.42,0003.38,0002.87
2023-06-13 07:25:00,SystemResetWarning,0829.7,5.00,000.00,030.1,028.3,000.0,038.6,031.5,25.7,0000.0,0007.45,0003.42,0002.94
2023-06-13 07:26:00,SystemResetWarning,0829.7,4.99,000.00,030.1,028.3,000.0,038.6,031.5,25.8,0000.0,0007.04,0003.48,0003.01
2023-06-13 07:27:00,SystemResetWarning,0829.7,4.99,000.00,030.1,028.3,000.0,038.6,031.5,25.7,0000.0,0006.60,0003.51,0003.05
2023-06-13 07:28:00,SystemResetWarning,0829.7,5.00,000.00,030.1,028.3,000.0,038.6,031.5,25.6,0000.0,0005.37,0003.48,0003.08
2023-06-13 07:29:00,SystemResetWarning,0829.7,5.00,000.00,030.1,028.3,000.0,038.6,031.5,25.7,0000.0,0005.16,0003.45,0003.07
2023-06-13 07:30:00,SystemResetWarning,0829.7,5.00,000.00,030.1,028.3,000.0,038.6,031.5,25.7,0000.0,0005.34,0003.49,0003.08
2023-06-13 07:31:00,SystemResetWarning,0829.7,5.01,000.00,030.1,028.3,000.0,038.6,031.5,25.6,0000.0,0005.40,0003.49,0003.09
2023-06-13 07:32:00,SystemResetWarning,0829.7,5.00,000.00,030.1,028.3,000.0,038.6,031.5,25.6,0000.0,0005.27,0003.45,0003.08
2023-06-13 07:33:00,SystemResetWarning,0829.7,5.00,000.00,030.1,028.3,000.0,038.6,031.5,25.7,0000.0,0005.37,0003.45,0003.08
2023-06-13 07:34:00,SystemResetWarning,0829.7,4.99,000.00,030.1,028.3,000.0,038.6,031.5,25.8,0000.0,0005.70,0003.50,0003.11
2023-06-13 07:35:00,SystemResetWarning,0829.7,5.00,000.00,030.1,028.3,000.0,038.6,031.5,25.9,0000.0,0005.83,0003.52,0003.12
2023-06-13 07:36:00,SystemResetWarning,0829.7,5.00,000.00,030.1,028.3,000.0,038.6,031.5,25.8,0000.0,0005.97,0003.53,0003.13
2023-06-13 07:37:00,SystemResetWarning,0829.7,5.00,000.00,030.1,028.3,000.0,038.6,031.5,25.7,0000.0,0005.85,0003.49,0003.12
2023-06-13 07:38:00,SystemResetWarning,0829.7,5.00,000.00,030.1,028.3,000.0,038.6,031.5,25.6,0000.0,0005.86,0003.49,0003.12
2023-06-13 07:39:00,SystemResetWarning,0829.7,5.00,000.00,030.1,028.3,000.0,038.6,031.4,25.6,0000.0,0005.94,0003.51,0003.12
2023-06-13 07:40:00,SystemResetWarning,0829.7,5.00,000.00,030.1,028.3,000.0,038.6,031.5,25.6,0000.0,0006.09,0003.54,0003.12
2023-06-13 07:41:00,SystemResetWarning,0829.7,5.00,000.00,030.1,028.3,000.0,038.6,031.5,25.6,0000.0,0005.98,0003.53,0003.11
2023-06-13 07:42:00,SystemResetWarning,0829.7,5.00,000.00,030.1,028.3,000.0,038.6,031.5,25.5,0000.0,0005.86,0003.49,0003.09
2023-06-13 07:43:00,SystemResetWarning,0829.6,5.01,000.00,030.1,028.3,000.0,038.6,031.5,25.5,0000.0,0005.75,0003.46,0003.07
2023-06-13 07:44:00,SystemResetWarning,0829.7,5.01,000.00,030.1,028.3,000.0,038.6,031.5,25.6,0000.0,0005.56,0003.42,0003.05
2023-06-13 07:45:00,SystemResetWarning,0829.7,5.00,000.00,030.1,028.3,000.0,038.6,031.5,25.6,0000.0,0005.39,0003.39,0003.02
2023-06-13 07:46:00,SystemResetWarning,0829.7,5.00,000.00,030.1,028.3,000.0,038.6,031.5,25.8,0000.0,0005.29,0003.39,0003.03
2023-06-13 07:47:00,SystemResetWarning,0829.7,5.00,000.00,030.1,028.4,000.0,038.6,031.5,25.8,0000.0,0005.16,0003.38,0003.01
2023-06-13 07:48:00,SystemResetWarning,0829.7,5.00,000.00,030.1,028.3,000.0,038.6,031.5,25.7,0000.0,0005.82,0003.40,0002.99
2023-06-13 07:49:00,SystemResetWarning,0829.7,5.00,000.00,030.1,028.3,000.0,038.6,031.5,25.5,0000.0,0006.02,0003.39,0002.95
2023-06-13 07:50:00,SystemResetWarning,0829.7,5.01,000.00,030.1,028.3,000.0,038.6,031.5,25.4,0000.0,0006.14,0003.38,0002.92
2023-06-13 07:51:00,SystemResetWarning,0829.7,5.00,000.00,030.1,028.3,000.0,038.6,031.5,25.2,0000.0,0006.22,0003.37,0002.88
2023-06-13 07:52:00,SystemResetWarning,0829.7,5.01,000.00,030.0,028.3,000.0,038.6,031.5,25.0,0000.0,0006.14,0003.33,0002.83
2023-06-13 07:53:00,SystemResetWarning,0829.7,4.99,000.00,030.0,028.3,000.0,038.6,031.5,24.7,0000.0,0006.07,0003.30,0002.78
2023-06-13 07:54:00,SystemResetWarning,0829.7,5.00,000.00,030.0,028.3,000.0,038.6,031.5,24.6,0000.0,0006.17,0003.31,0002.74
2023-06-13 07:55:00,SystemResetWarning,0829.7,5.00,000.00,030.0,028.3,000.0,038.6,031.5,24.4,0000.0,0006.18,0003.29,0002.67
2023-06-13 07:56:00,SystemResetWarning,0829.7,4.99,000.00,030.1,028.3,000.0,038.6,031.5,24.3,0000.0,0006.16,0003.27,0002.59
2023-06-13 07:57:00,SystemResetWarning,0829.7,4.99,000.00,030.1,028.3,000.0,038.6,031.5,24.3,0000.0,0006.01,0003.20,0002.47
2023-06-13 07:58:00,SystemResetWarning,0829.7,5.00,000.00,030.1,028.3,000.0,038.6,031.5,24.2,0000.0,0005.77,0003.11,0002.34
2023-06-13 07:59:00,SystemResetWarning,0829.7,5.00,000.00,030.1,028.3,000.0,038.6,031.5,24.2,0000.0,0005.26,0002.96,0002.24
